Regional Weather Roundup
Issued by NWS Grand Forks, ND

Home | Current Version | Previous Version | Text Only | Print | Product List | Glossary Off
Versions: 1 2 3 4 5 6 7 8 9 10 11 12 13 14 15 16 17 18 19 20 21 22 23 24 25 26 27 28 29 30 31 32 33 34 35 36 37 38 39 40 41 42 43 44 45 46 47 48 49 50

158
ASUS43 KFGF 260231
RWRFGF
PRAIRIE TO PINES  WEATHER ROUNDUP
NATIONAL WEATHER SERVICE EASTERN NORTH DAKOTA/GRAND FORKS ND
900 PM CDT TUE APR 25 2017

 **SATELLITE DATA USED TO AUGMENT SKY COVER AT AUTOMATED STATIONS**
 *****  WEATHER ACROSS EASTERN NORTH DAKOTA  *****

CITY           SKY/WX    TMP DP  RH WIND       PRES   REMARKS
GRAND FORKS    CLOUDY    36  28  73 NE21G28   29.89R
GRAND FRKS AFB CLOUDY    34  28  78 NE16G22   29.89R WCI  24
DEVILS LAKE    FAIR      34  28  79 NE12      29.91R
FARGO          CLOUDY    34  28  79 N22G30    29.80R WCI  22
WAHPETON ARPT  CLOUDY    36  30  80 N20G25    29.76R
$$

 ***** WEATHER ACROSS CENTRAL AND WESTERN NORTH DAKOTA  *****

CITY           SKY/WX    TMP DP  RH WIND       PRES   REMARKS
BISMARCK       CLOUDY    37  27  67 N12       29.90R
MINOT          CLOUDY    39  26  59 N10       29.93S
JAMESTOWN      CLOUDY    32  27  81 N17G26    29.86R WCI  21
MINOT AFB      CLOUDY    39  24  55 N16       29.93S
GARRISON         N/A     37  26  64 NE6       29.92R
WILLISTON      MOCLDY    39  25  57 N8        29.97S
DICKINSON      MOCLDY    31  23  72 N10       29.89S WCI  22
HETTINGER      CLOUDY    31  24  75 N9        29.90R WCI  23
$$

 *****  OTHER AIRPORT OBSERVATIONS IN OUR AREA  *****

CITY           SKY/WX    TMP DP  RH WIND       PRES   REMARKS
WALHALLA       NOT AVBL
GRAFTON AIRPOR MOCLDY    34  28  80 NE17G24   29.94S WCI  23
VALLEY CITY AR CLOUDY    32  32 100 N18       29.86R WCI  20
CANDO          NOT AVBL
CAVALIER APRT  FAIR      36  27  69 NE12      29.94S
GWINNER        CLOUDY    34  30  86 MISG      29.79R
ROLLA          CLOUDY    34  25  69 N20       29.95F WCI  22
 ***** THE ABOVE OBSERVATIONS ARE NON NWS ARE NOT QUALITY
       CONTROLLED AND MAY MIS-REPORT RAIN FOR SNOW...
$$

  *****  WEATHER ACROSS NORTHERN MINNESOTA  *****

CITY           SKY/WX    TMP DP  RH WIND       PRES   REMARKS
FLAG ISLAND    CLOUDY    30  23  74 NE21G30   29.95F WCI  17
WARROAD        CLOUDY    30  27  86 NE23G35   29.93F WCI  17
ROSEAU         CLOUDY    30  27  86 NE22      29.93R WCI  17
HALLOCK        CLOUDY    36  27  69 NE14G22   29.93S
THF RVR FALLS  CLOUDY    30  27  86 NE23G31   29.87R WCI  17
BAUDETTE       CLOUDY    30  23  75 NE13G22   29.90R WCI  20
WASKISH        CLOUDY    30  27  86 NE14G22   29.86S WCI  20
CROOKSTON      CLOUDY    34  28  80 NE21G28   29.87S WCI  22
STEPHEN NDAWN    N/A     34  27  75 NE21        N/A  WCI  22
GREENBUSH NDAW   N/A     30  27  86 NE18        N/A  WCI  18
$$
  *****  WEATHER ACROSS CENTRAL AND WEST MINNESOTA  *****

CITY           SKY/WX    TMP DP  RH WIND       PRES   REMARKS
FOSSTON        CLOUDY    30  27  86 NE16G26   29.82R WCI  19
BEMIDJI        CLOUDY    30  27  88 NE14G23   29.80R WCI  20
PARK RAPIDS    CLOUDY    35  28  75 NE16G26   29.74R
ELBOW LAKE     CLOUDY    38  34  85 NE12G20   29.70S
WADENA         CLOUDY    36  30  80 NE16G22   29.72R
DETROIT LAKES  CLOUDY    36  32  87 NE16      29.75R
MOORHEAD       CLOUDY    34  28  80 N20       29.80R WCI  22
FERGUS FALLS   CLOUDY    37  32  81 NE7G18    29.73R
MORRIS MN      LGT RAIN  39  37  93 N15G23    29.68R
STAPLES        DRIZZLE   36  32  87 N14       29.71R
$$
  *****  WEATHER ELSEWHERE ACROSS MINNESOTA  *****

CITY           SKY/WX    TMP DP  RH WIND       PRES   REMARKS
DULUTH         LGT RAIN  41  40  96 NE7       29.70S FOG
INTRNTL FALLS  CLOUDY    29  23  78 NE15G23   29.89R WCI  18
ELY            MIX PCPN  28  27  93 NE12G18   29.81R WCI  18
CLOQUET        LGT RAIN  41  39  93 E7        29.71R
WHEATON        CLOUDY    37  32  81 NW14G21   29.75R
BRAINERD       LGT RAIN  39  36  89 N14       29.70R
HIBBING        CLOUDY    30  28  92 N14G24    29.76S WCI  19
ALEXANDRIA     CLOUDY    40  35  83 NE15G23   29.68R
SAINT CLOUD    LGT RAIN  47  45  93 NE10      29.62R
MINNEAPOLIS    LGT RAIN  54  51  90 NE8       29.57R FOG
$$

  *****  WEATHER ACROSS SOUTH DAKOTA  *****

CITY           SKY/WX    TMP DP  RH WIND       PRES   REMARKS
SIOUX FALLS    LGT RAIN  37  37 100 N22       29.66S
BROOKINGS      LGT RAIN  34  33  96 N18       29.67S WCI  23
WATERTOWN      CLOUDY    33  31  92 N17       29.70R WCI  22
HURON          CLOUDY    33  32  96 N18       29.78R WCI  22
SISSETON         N/A     35  33  92 N21       29.74R WCI  24
ABERDEEN       CLOUDY    33  26  75 N22G29    29.80R WCI  21
MITCHELL       CLOUDY    35  32  88 N16       29.76R
PIERRE         LGT SNOW  31  28  89 N16       29.84R FOG     WCI  20
MOBRIDGE       CLOUDY    34  25  69 N15       29.84R WCI  24
RAPID CITY     FLURRIES  28  25  88 N15       29.88R WCI  16
$$

  *****  SOME WEATHER IN NEARBY STATES *****

CITY           SKY/WX    TMP DP  RH WIND       PRES   REMARKS
GLASGOW MT     CLOUDY    42  23  46 SE8       29.94S
GREAT FALLS MT LGT RAIN  38  36  92 NE9       29.83S
CHEYENNE WY    MOCLDY    29  23  78 N18G25    29.78R WCI  16
SCOTTSBLUFF NE CLOUDY    33  26  75 NE20      29.82R WCI  21
OMAHA NE       LGT RAIN  44  39  82 N20G28    29.59R
DES MOINES IA  LGT RAIN  57  49  74 NW16      29.46R
DAVENPORT IA   MOCLDY    70  49  47 SE12      29.47S HAZE
CHICAGO IL     CLOUDY    73  51  46 SE10      29.55R
EAU CLAIRE WI  CLOUDY    55  54  96 NE7       29.55F
LA CROSSE WI   CLOUDY    60  53  77 CALM      29.51S
$$

  *****  SOME NATIONAL WEATHER *****

CITY           SKY/WX    TMP DP  RH WIND       PRES   REMARKS
LA GUARDIA NY  LGT RAIN  52  50  93 NE22      29.88S
RALEIGH NC     MOCLDY    63  59  87 VRB3      29.74R
ATLANTA GA     FAIR      69  56  62 NW6       29.76R
NEW ORLEANS LA FAIR      69  60  73 S6        29.75S
OKLAHOMA CITY  MOCLDY    68  59  73 N29G38    29.40S THUNDER
ALBUQUERQUE NM MOCLDY    47  38  71 VRB7      29.73R
SALT LAKE CITY MOCLDY    50  37  61 CALM      29.90S
LOS ANGELES CA MOCLDY    64  52  64 W12       29.86R
BOISE ID       FAIR      55  31  39 NW6       29.88F
SEATTLE WA     LGT RAIN  53  43  68 W7        29.80F
$$

*** WEATHER ACROSS MANITOBA...SASKATCHEWAN AND ONTARIO ***
                ***ONTARIO***

CITY           SKY/WX    TMP DP  RH WIND       PRES   REMARKS
GERALDTON      LGTSLEET  18  14  86 NE10G23   29.99R WCI   6
THUNDER BAY    FRZ RAIN  27  23  86 N5        29.86R WCI  21
SIOUX LOOKOUT  FLURRIES  23  18  80 E6G20     30.01R WCI  16
TORONTO        PTCLDY    50  46  87 E14G21    29.86S
BIG TROUT LK   CLEAR     19   7  58 NE7       30.27R WCI  10
PICKLE LAKE    CLOUDY    21  16  79 NE13G24   30.11R WCI   9
DRYDEN         CLOUDY    25  21  86 NE22G32   29.96R WCI  10
KENORA         CLOUDY    28  21  74 NE17G24   29.97R WCI  16
$$
                *** MANITOBA***

CITY           SKY/WX    TMP DP  RH WIND       PRES   REMARKS
BRANDON        MOCLDY    32  19  59 NE15      30.05R WCI  22
DAUPHIN        CLEAR     30  16  55 NE10      30.13R WCI  21
ISLAND LAKE    CLEAR     27   1  33 NE6       30.23  WCI  20
PILOT MOUND      N/A     36  25  64 N13G18      N/A
THE PAS        PTCLDY    30   1  29 E3        30.20R
THOMPSON       CLEAR     21  -6  30 NE5       30.28S WCI  15
WINNIPEG       MOCLDY    36  27  69 NE10      30.00R
LYNN LAKE      CLEAR     28   5  37 S6        30.21R WCI  22
CHURCHILL      CLEAR      3  -2  78 S16       30.36F WCI -16
GILLAM         CLEAR     10  -2  56 E5        30.36S WCI   2
$$
                ***SASKATCHEWAN***

CITY           SKY/WX    TMP DP  RH WIND       PRES   REMARKS
ESTEVAN        MOCLDY    36  23  60 NE8       29.99S
KINDERSLEY     LGT SNOW  30  28  93 E13       29.96S VSB 3/4 WCI  20
LLOYDMINSTER   LGT SNOW  30  30 100 SE15      30.01S WCI  19
PRINCE ALBERT  PTCLDY    34  16  47 E6        30.08F
REGINA         MOCLDY    36  23  60 E7        30.03S
YORKTON        CLEAR     32  19  59 N10       30.07R WCI  24
N. BATTLEFORD  CLOUDY    34  21  60 E10       30.06S
LA RONGE       PTCLDY    34   7  32 E8        30.12S
SASKATOON      CLOUDY    36  19  51 E9        30.05F
SWIFT CURRENT  CLOUDY    34  27  75 SE12      29.93S
$$
NOTE: THESE ARE AUTOMATED STATIONS WITH LIMITED QUALITY CONTROL
      "FAIR" INDICATES FEW OR NO CLOUDS BELOW 12,000 FEET WITH NO
      SIGNIFICANT WEATHER AND/OR OBSTRUCTIONS TO VISIBILITY.
      SKY/WX - SKY CONDITION AND SIGNIFICANT WEATHER.
      TMP - AIR TEMPERATURE.    DP   - DEWPOINT TEMPERATURE.
      RH  - RELATIVE HUMIDITY.  PRES - PRESSURE.
      HX  - HEAT INDEX.         WCI  - WIND CHILL INDEX.
$




USA.gov is the U.S. government's official web portal to all federal, state and local government web resources and services.